AirNav   Pilot Hours Calculator
 
 448 users online  

SN95 Roberts Air Field
Sylvia, Kansas, USA

GOING TO SYLVIA?


FAA INFORMATION EFFECTIVE 08 SEPTEMBER 2022

Location

FAA Identifier: SN95
Lat/Long: 37-58-39.0510N 098-24-15.2610W
37-58.650850N 098-24.254350W
37.9775142,-98.4042392
(estimated)
Elevation: 1765 ft. / 538 m (estimated)
Variation: 07E (1985)
From city: 2 miles NE of SYLVIA, KS
Time zone: UTC -5 (UTC -6 during Standard Time)
Zip code: 67581

Airport Operations

Airport use: Private use. Permission required prior to landing
Activation date: 09/1976
Control tower: no
ARTCC: KANSAS CITY CENTER
FSS: WICHITA FLIGHT SERVICE STATION
Attendance: IREG
Wind indicator: yes
Segmented circle: no
Lights: TO ACTVT LIRL RW 17/35 KEY 122.7 5 TIMES.
Beacon: white-green (lighted land airport)
FOR ROTG BCN KEY 122.7 5 TIMES.

Airport Communications

UNICOM: 122.8

Nearby radio navigation aids

VOR radial/distance  VOR name  Freq  Var
HUTr263/22.3HUTCHINSON VOR/DME116.8004E

Airport Services

Parking: tiedowns
Airframe service: MINOR
Powerplant service: MINOR

Runway Information

Runway 17/35

Dimensions: 2250 x 90 ft. / 686 x 27 m
Surface: concrete/turf, in good condition
CENTER 32 FT. CONC FOR ENTIRE LGTH.
Runway edge lights: low intensity
RUNWAY 17  RUNWAY 35
Traffic pattern: leftleft
Markings: numbers only, in good conditionnumbers only, in good condition
Obstructions: 35 ft. trees, 1300 ft. from runway, 31:1 slope to clear
+4' FENCE AT 22 FT.
35 ft. trees, 1300 ft. from runway, 50 ft. left of centerline, 31:1 slope to clear
+19' ROAD AT 165 FT.

Runway 13/31

Dimensions: 3150 x 95 ft. / 960 x 29 m
Surface: turf, in fair condition
RUNWAY 13  RUNWAY 31
Traffic pattern: leftleft
Obstructions: 5 ft. fence, 40 ft. from runway, 8:1 slope to clear19 ft. road, 120 ft. from runway, 6:1 slope to clear

Airport Ownership and Management from official FAA records

Ownership: Privately-owned
Owner: L. J. ROBERTS, JR.
RT 1
SYLVIA, KS 67581
Phone 316-486-3445
Manager: L.S. ROBERTS JR.
RT 1
SYLVIA, KS 67581
Phone 316-486-3445

Airport Operational Statistics

Aircraft based on the field: 6
Single engine airplanes: 5
Multi engine airplanes: 1
    
Aircraft operations: avg 25/week *
77% local general aviation
23% transient general aviation
* for 12-month period ending 05 May 1992

Additional Remarks

FOR CD CTC KANSAS CITY ARTCC AT 913-254-8508.

Instrument Procedures

There are no published instrument procedures at SN95.

Some nearby airports with instrument procedures:

9K8 - Kingman Airport/Clyde Cessna Field (23 nm SE)
KPTT - Pratt Regional Airport (23 nm SW)
KLYO - Lyons-Rice County Municipal Airport (23 nm N)
KHUT - Hutchinson Regional Airport (26 nm E)
KGBD - Great Bend Municipal Airport (31 nm NW)
 
Loc | Ops | Rwys | IFR | FBO | Links
Com | Nav | Svcs | Stats | Notes
Area around SN95 (Roberts Air Field)
 
Road maps at: MapQuest Bing Google
 
Aerial photo
No photo
 
Sectional chart

 
Airport distance calculator
Flying to Roberts Air Field? Find the distance to fly.

From to SN95

Sunrise and sunset
Times for 03-Oct-2022
 Local
(UTC-5)
 Zulu
(UTC)
Morning civil twilight07:0612:06
Sunrise07:3212:32
Sunset19:1300:13
Evening civil twilight19:3900:39

Current date and time
Zulu (UTC)  03-Oct-2022 06:33:02
Local (UTC-5)  03-Oct-2022 01:33:02
 
METAR
KPTT 
23nm SW 
030615Z AUTO 15007KT 10SM CLR 18/00 A3022 RMK AO2 T01750000
KLYO 
23nm N 
030615Z AUTO 14006KT 10SM CLR 16/03 A3021 RMK AO2 T01610025
KHUT 
26nm E 
030552Z AUTO 10004KT 10SM CLR 14/03 A3021 RMK AO2 SLP214 T01390028 10239 20117 402890094 58002 $
KGBD 
31nm NW 
030556Z AUTO 14009KT 10SM CLR 14/03 A3021 RMK AO2 SLP218 T01440033 10250 20139 402830094 58003
KMPR 
40nm NE 
030615Z AUTO 13009KT 10SM CLR 16/02 A3022 RMK AO2 T01630022
KP28 
42nm S 
030556Z AUTO 12004KT 17/01 A3020 RMK AO1 SLP215 T01720011 10267 20172 402940083 58003 $
TAF
KHUT 
26nm E 
030520Z 0306/0406 13006KT P6SM SKC FM031600 17014G20KT P6SM FEW250 FM040000 15007KT P6SM SCT250
KGBD 
31nm NW 
030520Z 0306/0406 14007KT P6SM SKC FM031600 17015G24KT P6SM FEW250 FM040000 15011KT P6SM SCT200
NOTAMs
Click for the latest NOTAMs
NOTAMs are issued by the DoD/FAA and will open in a separate window not controlled by AirNav.

 

 
 

Would you like to see your business listed on this page?

 If your business provides an interesting product or service to pilots, flight crews, aircraft, or users of the Roberts Air Field, you should consider listing it here.  To start the listing process, click on the button below
 
Add a business
 

Other Pages about Roberts Air Field

Update a link
 
Copyright © AirNav, LLC. All rights reserved. Privacy Policy  Contact